Change the Weather History Date:

Wednesday, September 5, 2012

  Actual Average Record
Temperature  
Mean Temperature 72 °F -  
Max Temperature 82 °F 75 °F 91 °F (2014)
Min Temperature 64 °F 61 °F 54 °F (2000)
Cooling Degree Days 8    
Growing Degree Days 22 (Base 50)    
Moisture  
Dew Point 66 °F    
Average Humidity 84    
Maximum Humidity 100    
Minimum Humidity 58    
Precipitation  
Precipitation 0.00 in - - ()
Sea Level Pressure  
Sea Level Pressure 29.86 in    
Wind  
Wind Speed 5 mph (SE)    
Max Wind Speed 9 mph    
Max Gust Speed -    
Visibility 8 miles    
Events Fog    
Averages and records for this station are not official NWS values.
T = Trace of Precipitation, MM = Missing Value Source: NWS Daily Summary

Daily Weather History Graph

Daily Weather History Graph

Search for Another Location

Airport or City:

Trip Planner

Search our weather history database for the weather conditions in past years. The results will help you decide how hot, cold, wet, or windy it might be!

Date:

Astronomy

Sep. 05, 2012 Rise Set
Actual Time 6:57 AM EDT 7:52 PM EDT
Civil Twilight 6:29 AM EDT 8:20 PM EDT
Nautical Twilight 5:55 AM EDT 8:53 PM EDT
Astronomical Twilight 5:20 AM EDT 9:28 PM EDT
Moon 10:16 PM EDT (9/5) 12:04 PM EDT (9/5)
Length of Visible Light 13h 51m
Length of Day
12h 54m
Waning Gibbous, 76% of the Moon is Illuminated
Sep 5
Waning Gibbous
Sep 8
Last Quarter
Sep 15
New
Sep 22
First Quarter
Sep 29
Full

Hourly Weather History & Observations

Time (EDT) Temp. Heat Index Dew Point Humidity Pressure Visibility Wind Dir Wind Speed Gust Speed Precip Events Conditions
12:53 AM 70.0 °F - 64.9 °F 84% 29.86 in 10.0 mi ENE 4.6 mph - N/A   Partly Cloudy
1:53 AM 69.1 °F - 64.0 °F 84% 29.86 in 10.0 mi East 3.5 mph - N/A   Clear
2:53 AM 68.0 °F - 64.0 °F 87% 29.86 in 10.0 mi East 3.5 mph - N/A   Clear
3:53 AM 66.0 °F - 63.0 °F 90% 29.87 in 10.0 mi Calm Calm - N/A   Clear
4:53 AM 66.9 °F - 63.0 °F 87% 29.88 in 10.0 mi Calm Calm - N/A   Clear
5:53 AM 66.0 °F - 63.0 °F 90% 29.88 in 9.0 mi SSE 4.6 mph - N/A   Clear
6:53 AM 64.9 °F - 63.0 °F 93% 29.88 in 5.0 mi SSE 5.8 mph - N/A   Clear
6:59 AM 64.4 °F - 62.6 °F 94% 29.89 in 1.8 mi SSE 6.9 mph - N/A   Partly Cloudy
7:04 AM 64.4 °F - 62.6 °F 94% 29.89 in 0.8 mi SSE 4.6 mph - N/A   Mist
7:53 AM 64.9 °F - 64.0 °F 97% 29.90 in 0.5 mi SSE 8.1 mph - N/A Fog Fog
8:07 AM 64.4 °F - 64.4 °F 100% 29.91 in 1.5 mi SSE 5.8 mph - N/A   Overcast
8:20 AM 64.4 °F - 64.4 °F 100% 29.91 in 2.5 mi SSE 4.6 mph - N/A   Overcast
8:39 AM 66.2 °F - 64.4 °F 94% 29.91 in 2.5 mi SSE 6.9 mph - N/A   Scattered Clouds
8:53 AM 66.9 °F - 64.9 °F 93% 29.90 in 2.5 mi SSE 6.9 mph - N/A   Clear
9:00 AM 66.2 °F - 64.4 °F 94% 29.90 in 6.0 mi SSE 8.1 mph - N/A   Clear
9:53 AM 71.1 °F - 66.0 °F 84% 29.89 in 10.0 mi South 5.8 mph - N/A   Clear
10:53 AM 73.9 °F - 66.9 °F 79% 29.90 in 10.0 mi Variable 4.6 mph - N/A   Partly Cloudy
11:53 AM 75.0 °F - 66.9 °F 76% 29.88 in 10.0 mi North 5.8 mph - N/A   Partly Cloudy
12:53 PM 79.0 °F - 64.9 °F 62% 29.84 in 10.0 mi ESE 9.2 mph - N/A   Clear
1:53 PM 81.0 °F 82.7 °F 64.9 °F 58% 29.84 in 10.0 mi South 6.9 mph - N/A   Partly Cloudy
2:53 PM 79.0 °F - 70.0 °F 74% 29.83 in 10.0 mi NNW 6.9 mph - N/A   Clear
3:53 PM 78.1 °F - 70.0 °F 76% 29.83 in 10.0 mi NNE 8.1 mph - N/A   Scattered Clouds
4:53 PM 78.1 °F - 70.0 °F 76% 29.81 in 10.0 mi NNE 8.1 mph - N/A   Clear
5:53 PM 75.2 °F - 69.8 °F 83% 29.81 in 10.0 mi North 5.8 mph - N/A   Clear
6:53 PM 75.9 °F - 70.0 °F 82% 29.81 in 10.0 mi NE 4.6 mph - N/A   Clear
7:53 PM 75.9 °F - 71.1 °F 85% 29.80 in 10.0 mi NE 5.8 mph - N/A   Clear
8:53 PM 75.0 °F - 72.0 °F 90% 29.81 in 9.0 mi Calm Calm - N/A   Clear
9:53 PM 75.9 °F - 68.0 °F 76% 29.82 in 10.0 mi Calm Calm - N/A   Clear
10:53 PM 78.1 °F - 66.9 °F 68% 29.81 in 10.0 mi South 3.5 mph - N/A   Clear
11:53 PM 75.9 °F - 66.0 °F 71% 29.81 in 10.0 mi South 3.5 mph - N/A   Clear